www.pogodaiklimat.ru

Погода и климат >> Архив погоды >> Россия >> Хабаровский край >> Большой Шантар


АРХИВ ПОГОДЫ в Большом Шантаре

Время (UTC), дата Ветер
(напр.,м/с)
 
Видим.   Явления Облачность Т
(С)
Тd
(С)
f
(%)
Тe
(С)
Тes
(С)
Комфортность P
(гПа)
Po
(гПа)
Тmin
(С)
Tmax
(С)
R
(мм)
R24
(мм)
S
(см)
18 14.05 ЮВ 1 50 км 10/0
[As trans]
+1.6 +1.0 96 -0 -0 1013.3 1012.1
21 14.05 ЮЗ 2 50 км 10/8 1000 м
[Sc As op]
+1.3 +1.1 99 -2 -2 1013.3 1012.2 +0.6
00 15.05 С 2 50 км 10/4 1000 м
[Sc Ac trans Ci fib]
+6.6 +1.7 71 +5 +8 1012.9 1011.8
03 15.05 ЮЗ 2 20 км 10/6 1000 м
[Sc Ac trans Ci fib]
+2.7 +0.2 84 -0 +3 1012.3 1011.2
06 15.05 СЗ 3 20 км {дождь} 8/3 1000 м
[Sc Ac trans Ci fib]
+8.5 +2.7 67 +6 +10 1011.5 1010.4
09 15.05 СВ 6 20 км 10/3 1000 м
[Sc Ci fib]
+5.7 +0.1 67 +1 +1 1011.1 1010.0 +8.5
12 15.05 В 2 20 км 10/0
[Cs]
+2.1 -0.5 83 -1 -1 1012.3 1011.1
15 15.05 СВ 4 20 км 8/0
[Ac trans Ci fib]
+1.2 +0.6 96 -4 -4 1011.6 1010.5
18 15.05 СВ 3 20 км 10/8 1000 м
[Sc Ac trans Ci fib]
+2.0 +0.1 87 -2 -2 1011.3 1010.1
21 15.05 ЮЗ 1 50 км 9/0
[Ac trans Ci fib]
+1.7 +1.1 96 -0 +1 1012.5 1011.4 -0.7
00 16.05 СВ 5 50 км 10/0
[Ac trans Ci fib]
+6.2 +1.1 70 +2 +5 1011.9 1010.8
03 16.05 СВ 5 50 км 10/0
[Ac As]
+5.2 +0.8 73 +1 +3 1010.3 1009.2
06 16.05 СВ 6 10 км слаб. дождь 10/8 600 м
[Sc As op]
+2.4 +2.4 100 -4 -4 1009.5 1008.4
09 16.05 СВ 6
{10}
50 км {дождь} 10/10 600 м
[Sc]
+2.7 +2.6 99 -3 -3 1009.1 1008.0 +8.5 3
12 16.05 СВ 7-11
{11}
50 км {дождь} 10/10 300 м
[St]
+2.0 +1.9 99 -5 -5 1008.8 1007.7
15 16.05 СВ 6
{13}
50 км 10/10 300 м
[St]
+2.3 +2.2 99 -4 -4 1007.7 1006.6
18 16.05 СВ 5
{12}
10 км слаб. дождь 10/10 300 м
[St]
+1.7 +1.7 100 -4 -4 1008.0 1006.9
21 16.05 СВ 4 20 км {дождь} 10/10 300 м
[Cb cap]
+1.9 +1.9 100 -3 -3 1008.6 1007.5 +1.4 0.7
00 17.05 ЮВ 1 20 км {дождь} 10/10 300 м
[Cb cap]
+2.4 +2.4 100 0 0 1010.0 1008.9
03 17.05 СВ 5 20 км 10/10 600 м
[Cb cap]
+7.2 +3.3 76 +3 +3 1009.6 1008.5
06 17.05 СВ 8-10
{12}
20 км 10/10 600 м
[Cb cap]
+4.3 +1.4 81 -2 -2 1008.7 1007.5
09 17.05 С 4
{14}
20 км слаб. ливневой дождь 10/10 300 м
[Cb cap]
+2.0 +1.6 97 -3 -3 1009.7 1008.6 +7.4
12 17.05 СВ 6-10
{14}
10 км в посл. час ливневой дождь 10/10 300 м
[Cb cap]
+1.2 +1.2 100 -5 -5 1007.6 1006.5
15 17.05 С 3 10 км слаб. ливневой дождь 10/10 300 м
[Cb cap]
+1.0 +1.0 100 -4 -4 1007.2 1006.1
18 17.05 С 2 10 км {ливн. осадки} 10/10 300 м
[Cb cap]
+1.0 +1.0 100 -3 -3 1007.3 1006.2
21 17.05 СВ 4 20 км 10/10 300 м
[St]
+1.3 +1.3 100 -4 -4 1006.9 1005.8 +0.7 6
00 18.05 СВ 6 50 км 10/10 300 м
[Cb cap]
+2.8 +2.3 97 -3 -3 1005.0 1003.9
03 18.05 СВ 3 10 км слаб. ливневой дождь 10/10 300 м
[Cb cap]
+2.2 +2.0 99 -2 -2 1004.1 1003.0
06 18.05 ЮЗ 1 20 км {ливн. осадки} 10/10 300 м
[Cb cap]
+1.6 +1.6 100 -1 -1 1003.5 1002.4
09 18.05 З 1 50 км 8/8 600 м
[Sc]
+2.3 +2.0 98 0 +1 1003.2 1002.1 +3.3 3
12 18.05 С 4 50 км 4/3 600 м
[Sc Ac trans Ci fib]
-0.3 -0.3 100 -6 -6 1002.4 1001.3
15 18.05 ЮВ 2 50 км 4/0
[Ci fib]
-1.8 -1.8 100 -6 -6 1002.1 1000.9
18 18.05 Ю 1 500 м туман ясно -1.1 -1.1 100 -3 -3 1000.8 999.6
21 18.05 Ю 1 20 км слаб. морось {туман} 10/10 300 м
[St]
0.0 0.0 100 -2 -2 1000.2 999.0 -2.7 0.6
00 19.05 Ю 5 50 км {морось, туман} 9/4 1000 м
[Sc Ac lent]
+5.5 +4.2 91 +1 +2 1000.4 999.3
03 19.05 ЮЗ 3 50 км 4/3 1000 м
[Cu Sc Ac lent]
+12.5 +4.8 59 +11 +19 1001.3 1000.2
06 19.05 З 7
{11}
50 км 4/4 1000 м
[Cu med, cong]
+14.9 +4.7 50 +13 +15 1002.0 1000.9
09 19.05 З 3 50 км 4/3 1000 м
[Sc diur, vesp Ci fib]
+13.7 +4.8 55 +13 +14 1003.6 1002.5
12 19.05 В 4 50 км 1/1 1000 м
[Sc]
+3.9 +1.2 83 -1 -1 1005.3 1004.2
15 19.05 ЮЗ 1 50 км ясно +1.5 +1.4 99 -1 -1 1006.5 1005.4
18 19.05 В 1 50 км 1/0
[Ci fib]
-1.1 -1.1 100 -3 -3 1006.6 1005.4
21 19.05 СВ 2 50 км 8/0
[Ci fib]
+5.1 +2.9 86 +2 +4 1007.3 1006.1 -2.3
00 20.05 В 3 50 км 8/0
[Cs]
+15.4 +3.2 44 +15 +22 1006.7 1005.6
03 20.05 Ю 3 50 км 8/0
[Ci]
+10.5 +2.9 59 +9 +19 опасность
простуды
1006.8 1005.7
06 20.05 СВ 4 50 км 10/0
[Ac trans Cs]
+15.2 +2.4 42 +14 +19 1005.7 1004.6
09 20.05 СВ 3 50 км 10/0
[As op]
+10.9 +1.1 51 +9 +10 1005.7 1004.6 +17.0
12 20.05 СВ 3 50 км 10/0
[As op]
+9.1 +1.5 59 +7 +7 1005.7 1004.6
15 20.05 СВ 4 50 км 10/8 1000 м
[Sc As op]
+7.0 +1.3 67 +4 +4 1005.2 1004.1
18 20.05 СВ 6 50 км 10/10 600 м
[Sc]
+4.4 +0.9 78 -1 -1 1003.9 1002.8
21 20.05 СВ 6
{12}
4000 м слаб. морось 10/10 300 м
[St]
+5.0 +5.0 100 -0 -0 1001.8 1000.7 0.4
00 21.05 С 10-10
{16}
20 км слаб. морось 10/10 300 м
[St]
+4.2 +2.7 90 -3 -3 999.0 997.9
03 21.05 С 10-16
{19}
н/о н/о +3.1 +2.6 97
06 21.05 СВ 6 10 км слаб. дождь {морось} 10/10 300 м
[Frnb Ns]
+2.4 +2.4 100
09 21.05 СВ 7-11
{11}
20 км в посл. час переохл. осадки (гололёд) 10/10 300 м
[Frnb Ns]
+1.7 +1.7 100 -5 -5 999.7 998.6 +5.1 6
12 21.05 СВ 9-15
{15}
10 км слаб. дождь 10/10 300 м
[Frnb Ns]
+1.2 +1.1 99 -7 -7 998.6 997.5
15 21.05 СВ 5 10 км слаб. дождь 10/10 300 м
[Frnb Ns]
+1.1 +1.1 100

 

Местоположение метеостанции Большой Шантар (Хабаровский край, Россия): широта 54.83 долгота 137.50 высота над уровнем моря 9 м.

В архиве по умолчанию представлена погода в Большом Шантаре за последнюю неделю. Архивные данные за месяц целиком и за предыдущие месяцы, начиная с января 2011 года, Вы можете получить, выбрав интересующий диапазон дат из раскрывающегося списка и нажав кнопку "Ввод!".


*Определитесь, кто Вы:
робот инопланетянин человек

Внимание! Время в таблицах - всемирное. Для получения местного времени необходимо прибавить поправку, которая равна 10 ч.

Смотрите также архив погоды в соседних городах и на ближайших метеорологических станциях:

Погода в Чумикане (Хабаровский край, Россия) (142 км)
Погода в Аяне (Хабаровский край, Россия) (184 км)
Погода в Джане (Хабаровский край, Россия) (199 км)
Погода в Удском (Хабаровский край, Россия) (203 км)
Погода в Литке (Хабаровский край, Россия) (206 км)
Погода в Бурукане (Хабаровский край, Россия) (221 км)
Погода в Удинске (Хабаровский край, Россия) (229 км)
Погода в Им. Полины Осипенко (Хабаровский край, Россия) (276 км)
Погода в Николаевск-на-Амуре (Хабаровский край, Россия) (280 км)
Погода в Веселой Горке (Хабаровский край, Россия) (303 км)

Пояснения к столбцам:

Ветер - указаны скорость ветра в м/с - средняя за 10 мин, порывы в срок и между сроками (в фигурных скобках) и направление, откуда дует ветер: С - северный, СВ - северо-восточный, В - восточный, ЮВ - юго-восточный, Ю - южный, ЮЗ - юго-западный, З - западный, СЗ - северо-западный.
Видимость - горизонтальная дальность видимости в метрах или километрах. При видимости от 1 до 10 км при отсутствии осадков обычно наблюдается дымка, при ухудшении видимости до 1 км и менее - туман. В сухую погоду видимость может ухудшаться дымом, пылью или мглою.
Явления - указаны атмосферные явления, наблюдавшиеся в срок или в последний час перед сроком; фигурными скобками обозначены явления, наблюдавшиеся между сроками (за 1-3 часа до срока); квадратными скобками обозначены град или гололедные отложения с указанием их диаметра в мм.
Облачность - указаны через наклонную черту общая и нижняя облачность в баллах и высота нижней границы облаков в метрах; квадратными скобками обозначены формы облаков: Ci - перистые, Cs - перисто-слоистые, Cc - перисто-кучевые, Ac - высококучевые, As - высокослоистые, Sc - слоисто-кучевые, Ns - слоисто-дождевые, Cu - кучевые, Cb - кучево-дождевые. Подробнее классификацию облаков см. в Атласе облаков (PDF).
T - Температура воздуха - температура, измеренная на высоте 2 м над землей.
Td - Температура точки росы - температура, при понижении до которой содержащийся в воздухе водяной пар достигнет насыщения.
f - Относительная влажность воздуха - влажноcть воздуха, измеренная на высоте 2 м над землей.
Te - Эффективная температура - температура, которую ощущает одетый по сезону человек в тени. Характеристика душности погоды. При расчете учитывается влияние влажности воздуха и скорости ветра на теплоощущения человека.
Tes - Эффективная температура на солнце - температура, которую ощущает человек, с поправкой на солнечный нагрев. Характеристика знойности погоды. Зависит от высоты солнца над горизонтом, облачности и скорости ветра. Ночью, в пасмурную погоду, а также при ветре 12 м/с и более поправка равна нулю.
P - Атмосферное давление - приведенное к уровню моря атмосферное давление.
Po - Атмосферное давление - измеренное на уровне метеостанции атмосферное давление.
Tmin - Минимальная температура - минимум температуры воздуха на высоте 2 м над землей.
Tmax - Максимальная температура - максимум температуры воздуха на высоте 2 м над землей.
R - Количество осадков - Количество выпавших осадков за период времени, мм. При наведении курсора мыши на число - период времени, за который выпало указанное количество осадков.
R24 - Количество осадков - Количество выпавших осадков за 24 часа, мм.
S - Снежный покров - Высота снежного покрова, см. При наведении курсора мыши на число - состояние снежного покрова и степень покрытия местности в баллах.